Regional Weather Roundup
Issued by NWS New Orleans/Baton Rouge, LA

Home | Current Version | Previous Version | Graphics & Text | Print | Product List | Glossary On
Versions: 1 2 3 4 5 6 7 8 9 10 11 12 13 14 15 16 17 18 19 20 21 22 23 24 25 26 27 28 29 30 31 32 33 34 35 36 37 38 39 40 41 42 43 44 45 46 47 48 49 50
257
ASUS44 KLIX 191311
RWRLIX
NEW ORLEANS REGIONAL WEATHER ROUNDUP
NATIONAL WEATHER SERVICE NEW ORLEANS LA
800 AM CDT SUN APR 19 2015

NOTE: "FAIR" INDICATES FEW OR NO CLOUDS BELOW 12,000 FEET WITH NO
      SIGNIFICANT WEATHER AND/OR OBSTRUCTIONS TO VISIBILITY.
      SKY/WX - SKY CONDITION AND SIGNIFICANT WEATHER.
      TMP - AIR TEMPERATURE.     DP    - DEWPOINT TEMPERATURE.
      RH  - RELATIVE HUMIDITY.   PRES  - PRESSURE.
      HI  - HEAT INDEX.          WCI   - WIND CHILL INDEX.

*  THESE STATIONS ARE NOT NWS OR FAA STATIONS AND ARE NOT UNDER
   NWS QUALITY CONTROL.

LAZ038-040-048-061>063-065>067-069-191400-
SOUTHEAST LOUISIANA

CITY           SKY/WX    TMP DP  RH WIND       PRES   REMARKS
N.O. AUDUBON   NOT AVBL
N.O. INTL ARPT PTSUNNY   71  67  87 SW7       29.80R
N.O. LAKEFRONT MOSUNNY   75  68  78 W20       29.80R
SLIDELL        MOSUNNY   72  70  93 VRB5      29.78R
BATON ROUGE    SUNNY     70  67  90 W7        29.74S
BOOTHVILLE     CLOUDY    73  72  96 W5        29.81R
BELLE CHASSE   PTSUNNY   71  68  90 W5        29.80R
BOGALUSA*        N/A     70  67  88 CALM      29.77S
GALLIANO*      CLOUDY    73  70  91 W7        29.81S
NEW ROADS*       N/A     68  66  94 W8        29.75R
GONZALES*        N/A     69  69 100 S6        29.76R
HAMMOND*       SUNNY     70  66  88 S6        29.77S
HOUMA*         NOT AVBL
PORT FOURCHON*   N/A     73  70  88 W14G20    29.84

$$

MSZ070-080>082-191400-
SOUTHERN MISSISSIPPI

CITY           SKY/WX    TMP DP  RH WIND       PRES   REMARKS
MCCOMB         SUNNY     69  67  93 W8        29.73F
GULFPORT       CLOUDY    72  69  90 VRB3      29.77R
BILOXI         CLOUDY    73  72  94 W3        29.77R
PASCAGOULA     CLOUDY    72  71  97 CALM      29.80R
STENNIS ARPT*  PTSUNNY   72  66  83 MISG      29.78R

$$

COASTAL OBSERVATIONS
LAKE AND NEARSHORE STATIONS

STATION/POSITION TIME  TEMP    WIND        PRES    WAVE
                       AIR SEA DIR/SP/G            HT/PER
                 (UTC) (F)     (DEG/KT/KT) (MB)    (FT/S)
PASCAGOULA       1200   73     250/  3/  6 1007.2
WAVELAND YACHT   1200   71 72  310/  5/  5 1007.6
GRAND ISLE       1200   74 74  280/ 13/ 17 1008.5
SOUTHWEST PASS   1200   69 63  250/ 16/ 18 1009.2
NEW CANAL        1200   73     280/  7/ 11 1008.1
SHELL BEACH      1200   72 75  280/ 10/ 12 1007.0

OFFSHORE STATIONS

STATION/POSITION TIME  TEMP    WIND        PRES    WAVE
                       AIR SEA DIR/SP/G            HT/PER
                 (UTC) (F)     (DEG/KT/KT) (MB)    (FT/S)
64 S DAUPHIN ISL 1250   71 74  280/ 16/ 19 1009.7    5/ 5

$$




USA.gov is the U.S. government's official web portal to all federal, state and local government web resources and services.